User: anonymous   Login
Location: Unspecified
(0.0000°N, 0.0000°E)
Time: 20:14:31
(UTC+00:00)
Language:

STARLINK-32105 - Orbit

View from above orbital plane
View from above orbital plane
View from above satellite
View from above satellite

Ground track
Ground track

The orbit is defined by the following mean orbital elements,

1 59689U          26145.57348436 +.00000000 +00000-0 +90938-4 0 00001
2 59689  43.0036 345.4352 0001130 270.0115  90.0607 15.27576213    03
Epoch (UTC): 25 May 2026 13:45:49
Eccentricity: 0.0001130
inclination: 43.0036°
perigee height: 482 km
apogee height: 484 km
right ascension of ascending node: 345.4352°
argument of perigee: 270.0115°
revolutions per day: 15.27576213
mean anomaly at epoch: 90.0607°

The dashed part of the orbit path shows where the satellite is in the earth's shadow,  

DLR